Location: Gombori
(14.9797°N, 2.9419°W)
Time: 05:21:34
(UTC+00:00)

Meteor 2-13 Rocket - Pass Details

Date: 30 November 2021
Orbit: 936 x 957 km, 82.5° (Epoch: 19 January)

Event Time Altitude Azimuth Distance (km) Brightness Sun altitude
Rises 05:23:06 0° 190° (S) 3,623 7.6 -13.9°
Reaches altitude 10° 05:25:37 10° 192° (SSW) 2,677 6.9 -13.4°
Maximum altitude 05:31:42 68° 275° (W) 1,021 4.4 -12.0°
Drops below altitude 10° 05:37:46 10° 357° (N) 2,668 6.6 -10.6°
Sets 05:40:16 0° 0° (N) 3,610 7.3 -10.0°
